Fortuna, CA

12:37 AM PDT on August 29, 2016 (GMT -0700)
Rohnerville

Weather History for KFOT - September, 2013

Change the Weather History Date:

Sunday, September 29, 2013

  Actual Average (KEKA) Record (KEKA)
Temperature  
Mean Temperature 62 °F 56 °F  
Max Temperature 64 °F 63 °F 77 °F (1966)
Min Temperature 59 °F 49 °F 41 °F (2007)
Degree Days  
Heating Degree Days 4 9  
Month to date heating degree days 230  
Since 1 July heating degree days 656  
Cooling Degree Days 0 0  
Month to date cooling degree days 0  
Year to date cooling degree days 0  
Growing Degree Days 12 (Base 50)    
Moisture  
Dew Point 59 °F    
Average Humidity 94    
Maximum Humidity 100    
Minimum Humidity 83    
Precipitation  
Precipitation 0.52 in 0.03 in 1.52 in (1901)
Month to date precipitation 0.56  
Year to date precipitation 24.33  
Snow  
Snow 0.00 in 0.00 in 0.00 in (2002)
Month to date snowfall 0.0  
Since 1 July snowfall 0.0  
Since 1 September snowfall 0.0  
Snow Depth -    
Sea Level Pressure  
Sea Level Pressure 29.96 in    
Wind  
Wind Speed 10 mph (ESE)    
Max Wind Speed 17 mph    
Max Gust Speed 24 mph    
Visibility 7 miles    
Events      
T = Trace of Precipitation, MM = Missing Value Source: NWS Daily Summary

Daily Weather History Graph

Daily Weather History Graph

Search for Another Location

Airport or City:

Trip Planner

Search our weather history database for the weather conditions in past years. The results will help you decide how hot, cold, wet, or windy it might be!

Date:

Astronomy

Sep. 29, 2013 Rise Set
Actual Time 7:11 AM PDT 7:01 PM PDT
Civil Twilight 6:44 AM PDT 7:28 PM PDT
Nautical Twilight 6:12 AM PDT 8:00 PM PDT
Astronomical Twilight 5:40 AM PDT 8:32 PM PDT
Moon 1:56 AM PDT 4:01 PM PDT
Length of Visible Light 12h 44m
Length of Day
11h 50m
Waning Crescent, 26% of the Moon is Illuminated
Sep 29
Waning Crescent
Oct 4
New
Oct 11
First Quarter
Oct 18
Full
Oct 26
Last Quarter

Hourly Weather History & Observations

Time (PDT) Temp. Dew Point Humidity Pressure Visibility Wind Dir Wind Speed Gust Speed Precip Events Conditions
12:15 AM 59.0 °F 55.4 °F 88% 29.97 in 10.0 mi ESE 17.3 mph 24.2 mph N/A   Clear
12:35 AM 59.0 °F 55.4 °F 88% 29.97 in 9.0 mi ESE 17.3 mph - N/A   Partly Cloudy
12:55 AM 59.0 °F 57.2 °F 94% 29.97 in 4.0 mi ESE 13.8 mph - N/A   Partly Cloudy
1:15 AM 59.0 °F 57.2 °F 94% 29.97 in 5.0 mi ESE 16.1 mph - N/A   Clear
1:35 AM 59.0 °F 57.2 °F 94% 29.98 in 10.0 mi ESE 11.5 mph - N/A   Clear
1:55 AM 59.0 °F 57.2 °F 94% 29.98 in 5.0 mi East 10.4 mph - 0.01 in   Clear
2:15 AM 59.0 °F 57.2 °F 94% 29.98 in 3.0 mi East 11.5 mph - N/A   Clear
2:35 AM 59.0 °F 57.2 °F 94% 29.98 in 4.0 mi ESE 12.7 mph - N/A   Clear
2:55 AM 59.0 °F 57.2 °F 94% 29.97 in 2.5 mi East 11.5 mph - N/A   Clear
3:15 AM 59.0 °F 57.2 °F 94% 29.96 in 4.0 mi East 12.7 mph - N/A   Clear
3:35 AM 59.0 °F 59.0 °F 100% 29.96 in 4.0 mi ESE 12.7 mph - N/A   Clear
3:55 AM 59.0 °F 59.0 °F 100% 29.96 in 10.0 mi ESE 9.2 mph - N/A   Clear
4:15 AM 59.0 °F 59.0 °F 100% 29.95 in 5.0 mi East 9.2 mph - N/A   Clear
4:35 AM 59.0 °F 59.0 °F 100% 29.95 in 6.0 mi East 9.2 mph - N/A   Clear
4:55 AM 59.0 °F 59.0 °F 100% 29.95 in 10.0 mi ESE 9.2 mph - N/A   Clear
5:15 AM 59.0 °F 59.0 °F 100% 29.94 in 10.0 mi ESE 8.1 mph - N/A   Clear
5:35 AM 60.8 °F 59.0 °F 94% 29.94 in 6.0 mi East 8.1 mph - N/A   Mostly Cloudy
5:55 AM 60.8 °F 59.0 °F 94% 29.94 in 6.0 mi SE 9.2 mph - N/A   Overcast
6:15 AM 60.8 °F 59.0 °F 94% 29.94 in 5.0 mi SE 9.2 mph - N/A   Overcast
6:35 AM 60.8 °F 59.0 °F 94% 29.95 in 3.0 mi ESE 11.5 mph - N/A   Overcast
6:55 AM 60.8 °F 59.0 °F 94% 29.94 in 5.0 mi ESE 8.1 mph - N/A   Overcast
7:15 AM 59.0 °F 59.0 °F 100% 29.95 in 3.0 mi East 4.6 mph - N/A   Overcast
7:35 AM 59.0 °F 59.0 °F 100% 29.95 in 4.0 mi East 6.9 mph - 0.06 in   Overcast
7:55 AM 59.0 °F 59.0 °F 100% 29.96 in 4.0 mi East 5.8 mph - 0.11 in   Overcast
8:15 AM 59.0 °F 59.0 °F 100% 29.96 in 5.0 mi SE 3.5 mph - 0.01 in   Overcast
8:35 AM 59.0 °F 59.0 °F 100% 29.96 in 4.0 mi East 6.9 mph - 0.04 in   Overcast
8:55 AM 59.0 °F 59.0 °F 100% 29.96 in 5.0 mi East 8.1 mph - 0.06 in   Mostly Cloudy
9:15 AM 60.8 °F 59.0 °F 94% 29.97 in 5.0 mi East 6.9 mph - 0.01 in   Mostly Cloudy
9:35 AM 60.8 °F 59.0 °F 94% 29.97 in 7.0 mi ESE 9.2 mph - 0.02 in   Scattered Clouds
9:55 AM 60.8 °F 60.8 °F 100% 29.98 in 9.0 mi ESE 8.1 mph - 0.03 in   Mostly Cloudy
10:15 AM 62.6 °F 59.0 °F 88% 29.98 in 10.0 mi SE 6.9 mph - N/A   Mostly Cloudy
10:35 AM 62.6 °F 59.0 °F 88% 29.98 in 10.0 mi ESE 8.1 mph - N/A   Partly Cloudy
10:55 AM 62.6 °F 60.8 °F 94% 29.98 in 10.0 mi ESE 8.1 mph - N/A   Clear
11:15 AM 62.6 °F 60.8 °F 94% 29.98 in 8.0 mi East 8.1 mph - N/A   Clear
11:35 AM 62.6 °F 60.8 °F 94% 29.99 in 10.0 mi East 5.8 mph - 0.01 in   Clear
11:55 AM 62.6 °F 60.8 °F 94% 29.98 in 9.0 mi East 6.9 mph - 0.01 in   Clear
12:15 PM 62.6 °F 62.6 °F 100% 29.98 in 4.0 mi East 6.9 mph - N/A   Clear
12:35 PM 62.6 °F 60.8 °F 94% 29.98 in 4.0 mi ESE 5.8 mph - 0.01 in   Clear
12:55 PM 62.6 °F 62.6 °F 100% 29.97 in 4.0 mi ESE 8.1 mph - 0.01 in   Clear
1:15 PM 64.4 °F 62.6 °F 94% 29.97 in 3.0 mi SE 8.1 mph - N/A   Clear
1:35 PM 62.6 °F 62.6 °F 100% 29.98 in 3.0 mi SE 4.6 mph - 0.01 in   Clear
1:55 PM 62.6 °F 62.6 °F 100% 29.97 in 5.0 mi Calm Calm - 0.01 in   Clear
2:15 PM 64.4 °F 60.8 °F 88% 29.97 in 10.0 mi SE 3.5 mph - N/A   Clear
2:35 PM 64.4 °F 60.8 °F 88% 29.97 in 10.0 mi SE 4.6 mph - N/A   Clear
2:55 PM 64.4 °F 60.8 °F 88% 29.97 in 10.0 mi South 5.8 mph - N/A   Clear
3:15 PM 64.4 °F 60.8 °F 88% 29.97 in 6.0 mi SSE 8.1 mph - N/A   Clear
3:35 PM 64.4 °F 59.0 °F 83% 29.97 in 10.0 mi SE 5.8 mph - N/A   Clear
3:55 PM 64.4 °F 59.0 °F 83% 29.97 in 8.0 mi SSE 9.2 mph - N/A   Clear
4:15 PM 62.6 °F 59.0 °F 88% 29.95 in 9.0 mi SSE 10.4 mph 17.3 mph N/A   Clear
4:35 PM 64.4 °F 59.0 °F 83% 29.95 in 6.0 mi SSE 5.8 mph - 0.01 in   Clear
4:55 PM 62.6 °F 59.0 °F 88% 29.96 in 5.0 mi ESE 8.1 mph - 0.02 in   Clear
5:15 PM 62.6 °F 60.8 °F 94% 29.96 in 9.0 mi ESE 8.1 mph - N/A   Clear
5:35 PM 62.6 °F 59.0 °F 88% 29.95 in 8.0 mi SE 10.4 mph 16.1 mph 0.01 in   Clear
5:55 PM 62.6 °F 59.0 °F 88% 29.95 in 10.0 mi ESE 11.5 mph - 0.01 in   Clear
6:15 PM 62.6 °F 59.0 °F 88% 29.95 in 9.0 mi SE 4.6 mph - 0.01 in   Clear
6:35 PM 62.6 °F 60.8 °F 94% 29.95 in 10.0 mi ESE 8.1 mph - 0.01 in   Clear
6:55 PM 62.6 °F 59.0 °F 88% 29.95 in 10.0 mi SE 8.1 mph - 0.01 in   Clear
7:15 PM 62.6 °F 59.0 °F 88% 29.95 in 7.0 mi ESE 8.1 mph - 0.01 in   Clear
7:35 PM 62.6 °F 59.0 °F 88% 29.95 in 8.0 mi ESE 8.1 mph - 0.02 in   Clear
7:55 PM 60.8 °F 59.0 °F 94% 29.95 in 8.0 mi East 5.8 mph - 0.02 in   Clear
8:15 PM 60.8 °F 59.0 °F 94% 29.96 in 5.0 mi East 8.1 mph - 0.01 in   Clear
8:35 PM 60.8 °F 59.0 °F 94% 29.96 in 4.0 mi SE 9.2 mph - 0.02 in   Clear
8:55 PM 60.8 °F 59.0 °F 94% 29.95 in 5.0 mi East 9.2 mph - 0.03 in   Clear
9:15 PM 60.8 °F 59.0 °F 94% 29.95 in 3.0 mi ESE 9.2 mph - 0.01 in   Clear
9:35 PM 60.8 °F 59.0 °F 94% 29.95 in 4.0 mi ESE 9.2 mph - 0.03 in   Clear
9:55 PM 60.8 °F 59.0 °F 94% 29.94 in 9.0 mi East 10.4 mph - 0.04 in   Clear
10:15 PM 60.8 °F 59.0 °F 94% 29.94 in 7.0 mi East 9.2 mph - 0.01 in   Clear
10:35 PM 60.8 °F 59.0 °F 94% 29.94 in 5.0 mi East 9.2 mph 17.3 mph 0.03 in   Clear
10:55 PM 60.8 °F 59.0 °F 94% 29.94 in 4.0 mi East 9.2 mph - 0.10 in   Clear
11:15 PM 60.8 °F 59.0 °F 94% 29.94 in 7.0 mi East 9.2 mph - 0.02 in   Clear
11:35 PM 60.8 °F 59.0 °F 94% 29.94 in 5.0 mi East 9.2 mph - 0.04 in   Clear
11:55 PM 60.8 °F 59.0 °F 94% 29.93 in 9.0 mi ESE 10.4 mph - 0.05 in   Clear